Location: ČR
(50.0000°N, 15.0000°E)
Time: 21:11:59
(UTC+01:00)

ARIANE 6 FM1 Upper Stage - Visible Passes

Search period start: 18 January 2026 00:00
Search period end: 28 January 2026 00:00
Orbit: 522 x 610 km, 62.0° (Epoch: 18 January)

Date Brightness Start Highest point End Pass type
(mag) Time Alt. Az. Time Alt. Az. Time Alt. Az.
20 Jan 5.0 18:36:35 10° SSE 18:36:47 11° SSE 18:36:47 11° SSE visible
21 Jan 4.3 18:35:56 10° S 18:37:46 19° SSE 18:37:46 19° SSE visible
22 Jan 3.6 18:35:35 10° S 18:38:39 30° SE 18:38:39 30° SE visible
22 Jan 5.6 20:14:14 10° WSW 20:14:42 13° WSW 20:14:42 13° WSW visible
23 Jan 2.9 18:35:24 10° SSW 18:39:16 44° SE 18:39:26 43° ESE visible
23 Jan 5.5 20:14:40 10° W 20:15:30 15° W 20:15:30 15° W visible
24 Jan 2.6 18:35:22 10° SSW 18:39:23 62° SE 18:40:09 50° E visible
24 Jan 5.5 20:15:09 10° W 20:16:11 16° W 20:16:11 16° W visible
25 Jan 2.4 18:35:28 10° SW 18:39:32 86° SE 18:40:46 43° NE visible
25 Jan 5.5 20:15:43 10° W 20:16:48 15° WNW 20:16:48 15° WNW visible
26 Jan 2.7 18:35:40 10° SW 18:39:42 69° NW 18:41:19 34° NNE visible
26 Jan 5.5 20:16:18 10° WNW 20:17:20 15° WNW 20:17:20 15° WNW visible
27 Jan 3.2 18:35:57 10° WSW 18:39:54 52° NW 18:41:46 27° NNE visible
27 Jan 5.5 20:16:54 10° WNW 20:17:48 14° NW 20:17:48 14° NW visible
